Flag for Germany Weather past 2 weeks in Neustrelitz, Mecklenburg-Western Pomerania, Germany

Now
55 °F

Sunny.


Feels Like: 55 °F
Forecast: 51 / 74 °F
Wind: No wind

Location: Neuruppin

Current Time: Aug 28, 2014 at 9:15:24 AM

Latest Report: Aug 28, 2014 at 9:00 AM


Visibility: 6 mi

Pressure: 30.07 "Hg

Humidity: 83%

Dew point: 50 °F

Location of NeustrelitzLocation

Historic Weather in Neustrelitz — Graph

°F

Neustrelitz temperature yesterday

Maximum temperature yesterday: 69 °F (at 3:00 PM)
Minimum temperature yesterday: 46 °F (at 5:00 AM)
Average temperature yesterday: 57 °F

Past Weeks' High & Low Weather Summary

 TemperatureHumidityPressure
High74 °F (Aug 13, 3:00 PM)98% (Aug 26, 7:00 AM)30.07 "Hg (Aug 26, 7:00 AM)
Low45 °F (Aug 25, 7:00 AM)41% (Aug 27, 6:00 PM)29.58 "Hg (Aug 18, 3:00 PM)
Average58 °F75%29.86 "Hg
* Reported Aug 13 8:00 AM — Aug 28 8:00 AM, Neustrelitz, Weather by CustomWeather, © 2014

Note: Actual official high and low records may vary slightly from our data, if they occured in-between our weather recording intervals... More about our weather records

Advertising

Neustrelitz weather history for previous 24 hours

 ConditionsComfort  
Time TempWeatherWind HumidityBarometerVisibility
8:00 AM
Aug 28
48 °FSunny.No wind94%30.07 "Hg6 mi
7:00 AM46 °FSunny.No wind97%30.06 "Hg6 mi
6:00 AM45 °FClear.No wind96%30.05 "Hg6 mi
4:00 AM46 °FClear.No wind95%30.05 "Hg6 mi
3:00 AM47 °FClear.1 mph95%30.05 "Hg6 mi
2:00 AM48 °FClear.No wind92%30.05 "Hg6 mi
1:00 AM49 °FClear.1 mph92%30.05 "Hg6 mi
12:00 AM50 °FClear.1 mph88%30.04 "Hg6 mi
11:00 PM
Aug 27
52 °FPassing clouds.No wind82%30.03 "Hg6 mi
10:00 PM53 °FClear.N/A85%30.02 "Hg6 mi
9:00 PM56 °FClear.N/A74%30.01 "Hg6 mi
8:00 PM61 °FPassing clouds.1 mph61%30.00 "Hg6 mi
7:00 PM66 °FSunny.N/A48%29.98 "Hg6 mi
6:00 PM68 °FPassing clouds.N/A41%29.97 "Hg6 mi
5:00 PM67 °FSunny.N/A44%29.97 "Hg6 mi
4:00 PM68 °FPassing clouds.N/A48%29.97 "Hg6 mi
3:00 PM69 °FPassing clouds.3 mph42%29.97 "Hg6 mi
2:00 PM67 °FPassing clouds.N/A54%29.97 "Hg6 mi
1:00 PM64 °FScattered clouds.N/A54%29.97 "Hg6 mi
12:00 PM64 °FPartly sunny.N/A60%29.96 "Hg6 mi
11:00 AM63 °FSunny.N/A61%29.94 "Hg6 mi
9:00 AM55 °FSunny.N/A89%29.92 "Hg6 mi
Weather by CustomWeather, © 2014

See weather overviewHow to use our weather pages